TimeCST,TemperatureF,Dew PointF,Humidity,Sea Level PressureIn,VisibilityMPH,Wind Direction,Wind SpeedMPH,Gust SpeedMPH,PrecipitationIn,Events,Conditions,WindDirDegrees,DateUTC
12:13 AM,21.2,19.4,93,29.84,10.0,Calm,Calm,-,N/A,,Overcast,0,2013-02-23 06:13:00
12:33 AM,21.2,19.4,93,29.84,10.0,Calm,Calm,-,N/A,,Overcast,0,2013-02-23 06:33:00
12:53 AM,21.2,19.4,93,29.84,10.0,Calm,Calm,-,N/A,Snow,Light Snow,0,2013-02-23 06:53:00
1:13 AM,21.2,17.6,86,29.83,10.0,Calm,Calm,-,N/A,,Overcast,0,2013-02-23 07:13:00
1:33 AM,21.2,19.4,93,29.83,10.0,Calm,Calm,-,N/A,,Scattered Clouds,0,2013-02-23 07:33:00
1:53 AM,21.2,19.4,93,29.82,10.0,Calm,Calm,-,N/A,Snow,Light Snow,0,2013-02-23 07:53:00
2:13 AM,21.2,19.4,93,29.82,10.0,Calm,Calm,-,N/A,Snow,Light Snow,0,2013-02-23 08:13:00
2:33 AM,21.2,17.6,86,29.81,10.0,Calm,Calm,-,N/A,,Overcast,0,2013-02-23 08:33:00
2:53 AM,21.2,17.6,86,29.81,10.0,Calm,Calm,-,N/A,,Overcast,0,2013-02-23 08:53:00
3:13 AM,19.4,15.8,86,29.80,10.0,Calm,Calm,-,N/A,,Mostly Cloudy,0,2013-02-23 09:13:00
3:33 AM,17.6,15.8,93,29.81,10.0,Calm,Calm,-,N/A,,Mostly Cloudy,0,2013-02-23 09:33:00
3:53 AM,15.8,12.2,86,29.80,10.0,Calm,Calm,-,N/A,,Mostly Cloudy,0,2013-02-23 09:53:00
4:13 AM,15.8,12.2,86,29.81,10.0,Calm,Calm,-,N/A,,Mostly Cloudy,0,2013-02-23 10:13:00
4:33 AM,17.6,14.0,86,29.80,10.0,Calm,Calm,-,N/A,,Scattered Clouds,0,2013-02-23 10:33:00
4:53 AM,15.8,12.2,86,29.80,10.0,Calm,Calm,-,N/A,,Mostly Cloudy,0,2013-02-23 10:53:00
5:13 AM,15.8,12.2,86,29.81,10.0,Calm,Calm,-,N/A,,Overcast,0,2013-02-23 11:13:00
5:33 AM,15.8,12.2,86,29.81,10.0,Calm,Calm,-,N/A,,Mostly Cloudy,0,2013-02-23 11:33:00
5:53 AM,14.0,10.4,86,29.81,10.0,Calm,Calm,-,N/A,,Scattered Clouds,0,2013-02-23 11:53:00
6:13 AM,12.2,8.6,85,29.81,10.0,Calm,Calm,-,N/A,,Scattered Clouds,0,2013-02-23 12:13:00
6:33 AM,10.4,8.6,92,29.81,10.0,Calm,Calm,-,N/A,Snow,Light Snow,0,2013-02-23 12:33:00
6:53 AM,10.4,6.8,85,29.81,10.0,Calm,Calm,-,N/A,,Overcast,0,2013-02-23 12:53:00
7:13 AM,10.4,6.8,85,29.81,5.0,Calm,Calm,-,N/A,,Overcast,0,2013-02-23 13:13:00
7:33 AM,10.4,6.8,85,29.81,10.0,Calm,Calm,-,N/A,,Overcast,0,2013-02-23 13:33:00
7:53 AM,10.4,8.6,92,29.81,10.0,Calm,Calm,-,N/A,,Scattered Clouds,0,2013-02-23 13:53:00
8:13 AM,12.2,10.4,92,29.81,7.0,Calm,Calm,-,N/A,,Scattered Clouds,0,2013-02-23 14:13:00
8:33 AM,15.8,12.2,86,29.80,10.0,Calm,Calm,-,N/A,,Mostly Cloudy,0,2013-02-23 14:33:00
8:53 AM,17.6,14.0,86,29.81,10.0,Calm,Calm,-,N/A,,Scattered Clouds,0,2013-02-23 14:53:00
9:13 AM,19.4,17.6,93,29.81,10.0,Calm,Calm,-,N/A,,Clear,0,2013-02-23 15:13:00
9:33 AM,21.2,19.4,93,29.81,10.0,Calm,Calm,-,N/A,,Clear,0,2013-02-23 15:33:00
9:53 AM,24.8,21.2,86,29.81,10.0,WNW,3.5,-,N/A,,Clear,290,2013-02-23 15:53:00
10:13 AM,26.6,21.2,80,29.81,10.0,West,3.5,-,N/A,,Clear,270,2013-02-23 16:13:00
10:33 AM,28.4,21.2,74,29.82,10.0,WNW,3.5,-,N/A,,Scattered Clouds,290,2013-02-23 16:33:00
10:53 AM,28.4,19.4,69,29.82,10.0,North,4.6,-,N/A,,Scattered Clouds,360,2013-02-23 16:53:00
11:13 AM,28.4,19.4,69,29.82,10.0,North,3.5,-,N/A,,Scattered Clouds,10,2013-02-23 17:13:00
11:33 AM,30.2,19.4,64,29.82,10.0,Calm,Calm,-,N/A,,Scattered Clouds,0,2013-02-23 17:33:00
11:53 AM,30.2,19.4,64,29.82,10.0,WNW,3.5,-,N/A,,Scattered Clouds,290,2013-02-23 17:53:00
12:13 PM,30.2,19.4,64,29.82,10.0,NNE,3.5,-,N/A,,Mostly Cloudy,20,2013-02-23 18:13:00
12:33 PM,30.2,19.4,64,29.82,10.0,North,3.5,-,N/A,,Overcast,360,2013-02-23 18:33:00
12:53 PM,30.2,19.4,64,29.82,10.0,North,3.5,-,N/A,,Overcast,10,2013-02-23 18:53:00
1:13 PM,30.2,19.4,64,29.81,10.0,NNE,3.5,-,N/A,,Overcast,20,2013-02-23 19:13:00
1:33 PM,30.2,19.4,64,29.81,10.0,Calm,Calm,-,N/A,,Mostly Cloudy,0,2013-02-23 19:33:00
1:53 PM,32.0,19.4,60,29.80,10.0,NNW,4.6,-,N/A,,Scattered Clouds,340,2013-02-23 19:53:00
2:13 PM,30.2,21.2,69,29.80,10.0,North,3.5,-,N/A,,Scattered Clouds,10,2013-02-23 20:13:00
2:33 PM,32.0,21.2,64,29.80,10.0,North,3.5,-,N/A,,Scattered Clouds,350,2013-02-23 20:33:00
2:53 PM,33.8,21.2,60,29.80,10.0,Calm,Calm,-,N/A,,Scattered Clouds,0,2013-02-23 20:53:00
3:13 PM,32.0,19.4,60,29.80,10.0,Calm,Calm,-,N/A,,Clear,0,2013-02-23 21:13:00
3:33 PM,33.8,19.4,56,29.81,10.0,NW,3.5,-,N/A,,Clear,320,2013-02-23 21:33:00
3:54 PM,33.8,21.2,60,29.81,10.0,WSW,4.6,-,N/A,,Scattered Clouds,250,2013-02-23 21:54:00
4:13 PM,32.0,19.4,60,29.81,10.0,West,3.5,-,N/A,,Clear,270,2013-02-23 22:13:00
4:33 PM,33.8,19.4,56,29.81,10.0,NW,4.6,-,N/A,,Clear,310,2013-02-23 22:33:00
4:53 PM,33.8,21.2,60,29.81,10.0,Calm,Calm,-,N/A,,Clear,0,2013-02-23 22:53:00
5:13 PM,32.0,19.4,60,29.81,10.0,Calm,Calm,-,N/A,,Clear,0,2013-02-23 23:13:00
5:33 PM,30.2,19.4,64,29.81,10.0,Calm,Calm,-,N/A,,Clear,0,2013-02-23 23:33:00
5:53 PM,28.4,19.4,69,29.82,10.0,Calm,Calm,-,N/A,,Clear,0,2013-02-23 23:53:00
6:13 PM,26.6,19.4,74,29.83,10.0,Calm,Calm,-,N/A,,Clear,0,2013-02-24 00:13:00
6:33 PM,24.8,19.4,80,29.83,10.0,Calm,Calm,-,N/A,,Scattered Clouds,0,2013-02-24 00:33:00
6:53 PM,26.6,19.4,74,29.84,10.0,Calm,Calm,-,N/A,,Mostly Cloudy,0,2013-02-24 00:53:00
7:13 PM,24.8,17.6,74,29.84,10.0,Calm,Calm,-,N/A,,Mostly Cloudy,0,2013-02-24 01:13:00
7:33 PM,24.8,17.6,74,29.84,10.0,Calm,Calm,-,N/A,,Overcast,0,2013-02-24 01:33:00
7:53 PM,26.6,19.4,74,29.84,10.0,Calm,Calm,-,N/A,,Mostly Cloudy,0,2013-02-24 01:53:00
8:13 PM,24.8,19.4,80,29.85,10.0,Calm,Calm,-,N/A,,Scattered Clouds,0,2013-02-24 02:13:00
8:33 PM,24.8,17.6,74,29.86,10.0,Calm,Calm,-,N/A,,Clear,0,2013-02-24 02:33:00
8:53 PM,23.0,17.6,80,29.86,10.0,Calm,Calm,-,N/A,,Clear,0,2013-02-24 02:53:00
9:13 PM,21.2,17.6,86,29.87,10.0,Calm,Calm,-,N/A,,Clear,0,2013-02-24 03:13:00
9:33 PM,21.2,17.6,86,29.87,10.0,Calm,Calm,-,N/A,,Clear,0,2013-02-24 03:33:00
9:53 PM,19.4,17.6,93,29.88,10.0,Calm,Calm,-,N/A,,Clear,0,2013-02-24 03:53:00
10:13 PM,15.8,12.2,86,29.88,10.0,Calm,Calm,-,N/A,,Clear,0,2013-02-24 04:13:00
10:33 PM,15.8,12.2,86,29.89,10.0,Calm,Calm,-,N/A,,Clear,0,2013-02-24 04:33:00
10:53 PM,14.0,10.4,86,29.89,10.0,Calm,Calm,-,N/A,,Clear,0,2013-02-24 04:53:00
11:13 PM,12.2,10.4,92,29.89,3.0,Calm,Calm,-,N/A,,Clear,0,2013-02-24 05:13:00
11:33 PM,12.2,10.4,92,29.90,1.5,Calm,Calm,-,N/A,,Mist,0,2013-02-24 05:33:00
11:53 PM,10.4,8.6,92,29.90,10.0,Calm,Calm,-,N/A,,Clear,0,2013-02-24 05:53:00